STARLINK-30168 (57513 NORAD) Tracking and Keplerian Element Data

This shows tracking and keplerian element data for the satellite.

Feedback or suggestion? Click here.




ElementValue
Catalog57513
NameSTARLINK-30168
Epoch Orbit422
Epoch Day239.16667824
Epoch Year2023
RAAN10.1718
Inclination43.0006
Eccentricity0.0001641
Argument of Perigee247.9323
Mean Anonmoly80.9288
Mean Motion15.5555339
Decay Rate-0.01630321
L11 57513U 23113U 23239.16667824 -.01630321 00000+0 -25803-1 0 9996
L22 57513 43.0006 10.1718 0001641 247.9323 80.9288 15.55553390 4220



Live tracking and technical data element details for STARLINK-30168 (NORAD 57513). STARLINK-30168 can be tracked NOW for your location showing map with azimuth and elevation plus other details from your city location.







IsCatalogInMostPopularTable: catalog: 57513, numindb: 6
Update: records affected: 1



GetName: 57513 STARLINK-30168

Hit Count: updated at: Tue, 26 Sep 2023 12:03:32 GMT